owner,sensor,date,latitude,longitude,vertical_datum,sea_water_temperature,qcFlag
BP,ioos:station:wmo:42880:1,2022-09-01T00:03:00Z,0.0000,0.0000,8.9,30.5,11111222
BP,ioos:station:wmo:42880:1,2022-09-01T00:13:00Z,0.0000,0.0000,8.9,30.5,11111222
BP,ioos:station:wmo:42880:1,2022-09-01T00:23:00Z,0.0000,0.0000,8.9,30.4,11111222
BP,ioos:station:wmo:42880:1,2022-09-01T00:33:00Z,0.0000,0.0000,8.8,30.4,11111222
BP,ioos:station:wmo:42880:1,2022-09-01T00:43:00Z,0.0000,0.0000,8.8,30.4,11111222
BP,ioos:station:wmo:42880:1,2022-09-01T00:53:00Z,0.0000,0.0000,8.7,30.4,11111222
BP,ioos:station:wmo:42880:1,2022-09-01T01:04:00Z,0.0000,0.0000,8.7,30.4,11111222
BP,ioos:station:wmo:42880:1,2022-09-01T01:14:00Z,0.0000,0.0000,8.8,30.4,11111222
BP,ioos:station:wmo:42880:1,2022-09-01T01:24:00Z,0.0000,0.0000,8.7,30.4,11111222
BP,ioos:station:wmo:42880:1,2022-09-01T01:34:00Z,0.0000,0.0000,8.7,30.4,11111222
BP,ioos:station:wmo:42880:1,2022-09-01T01:44:00Z,0.0000,0.0000,8.7,30.4,11111222
BP,ioos:station:wmo:42880:1,2022-09-01T01:54:00Z,0.0000,0.0000,8.7,30.4,11111222
BP,ioos:station:wmo:42880:1,2022-09-01T02:04:00Z,0.0000,0.0000,8.7,30.4,11111222
BP,ioos:station:wmo:42880:1,2022-09-01T02:14:00Z,0.0000,0.0000,8.7,30.4,11111222
BP,ioos:station:wmo:42880:1,2022-09-01T02:24:00Z,0.0000,0.0000,8.8,30.4,11111222
BP,ioos:station:wmo:42880:1,2022-09-01T02:34:00Z,0.0000,0.0000,8.8,30.4,11111222
BP,ioos:station:wmo:42880:1,2022-09-01T02:44:00Z,0.0000,0.0000,8.8,30.4,11111222
BP,ioos:station:wmo:42880:1,2022-09-01T02:54:00Z,0.0000,0.0000,8.7,30.4,11111222
BP,ioos:station:wmo:42880:1,2022-09-01T03:04:00Z,0.0000,0.0000,8.7,30.4,11111222
BP,ioos:station:wmo:42880:1,2022-09-01T03:14:00Z,0.0000,0.0000,8.7,30.4,11111222
BP,ioos:station:wmo:42880:1,2022-09-01T03:24:00Z,0.0000,0.0000,8.7,30.4,11111222
BP,ioos:station:wmo:42880:1,2022-09-01T03:34:00Z,0.0000,0.0000,8.6,30.4,11111222
BP,ioos:station:wmo:42880:1,2022-09-01T03:44:00Z,0.0000,0.0000,8.6,30.4,11111222
BP,ioos:station:wmo:42880:1,2022-09-01T03:54:00Z,0.0000,0.0000,8.6,30.4,11111222
BP,ioos:station:wmo:42880:1,2022-09-01T04:04:00Z,0.0000,0.0000,8.5,30.4,11111222
BP,ioos:station:wmo:42880:1,2022-09-01T04:14:00Z,0.0000,0.0000,8.7,30.4,11111222
BP,ioos:station:wmo:42880:1,2022-09-01T04:24:00Z,0.0000,0.0000,8.7,30.4,11111222
BP,ioos:station:wmo:42880:1,2022-09-01T04:34:00Z,0.0000,0.0000,8.8,30.4,11111222
BP,ioos:station:wmo:42880:1,2022-09-01T04:44:00Z,0.0000,0.0000,8.6,30.4,11111222
BP,ioos:station:wmo:42880:1,2022-09-01T04:54:00Z,0.0000,0.0000,8.4,30.4,11111222
BP,ioos:station:wmo:42880:1,2022-09-01T05:04:00Z,0.0000,0.0000,8.4,30.4,11111222
BP,ioos:station:wmo:42880:1,2022-09-01T05:14:00Z,0.0000,0.0000,8.3,30.4,11111222
BP,ioos:station:wmo:42880:1,2022-09-01T05:24:00Z,0.0000,0.0000,8.4,30.4,11111222
BP,ioos:station:wmo:42880:1,2022-09-01T05:34:00Z,0.0000,0.0000,8.4,30.4,11111222
BP,ioos:station:wmo:42880:1,2022-09-01T05:44:00Z,0.0000,0.0000,8.4,30.4,11111222
BP,ioos:station:wmo:42880:1,2022-09-01T05:54:00Z,0.0000,0.0000,8.5,30.4,11111222
BP,ioos:station:wmo:42880:1,2022-09-01T06:04:00Z,0.0000,0.0000,8.4,30.4,11111222
BP,ioos:station:wmo:42880:1,2022-09-01T06:14:00Z,0.0000,0.0000,8.4,30.4,11111222
BP,ioos:station:wmo:42880:1,2022-09-01T06:24:00Z,0.0000,0.0000,8.5,30.4,11111222
BP,ioos:station:wmo:42880:1,2022-09-01T06:34:00Z,0.0000,0.0000,8.5,30.4,11111222
BP,ioos:station:wmo:42880:1,2022-09-01T06:44:00Z,0.0000,0.0000,8.5,30.4,11111222
BP,ioos:station:wmo:42880:1,2022-09-01T06:54:00Z,0.0000,0.0000,8.5,30.4,11111222
BP,ioos:station:wmo:42880:1,2022-09-01T07:04:00Z,0.0000,0.0000,8.5,30.4,11111222
BP,ioos:station:wmo:42880:1,2022-09-01T07:14:00Z,0.0000,0.0000,8.5,30.4,11111222
BP,ioos:station:wmo:42880:1,2022-09-01T07:24:00Z,0.0000,0.0000,8.5,30.4,11111222
BP,ioos:station:wmo:42880:1,2022-09-01T07:34:00Z,0.0000,0.0000,8.6,30.4,11111222
BP,ioos:station:wmo:42880:1,2022-09-01T07:44:00Z,0.0000,0.0000,8.5,30.4,11111222
BP,ioos:station:wmo:42880:1,2022-09-01T07:54:00Z,0.0000,0.0000,8.6,30.4,11111222
BP,ioos:station:wmo:42880:1,2022-09-01T08:04:00Z,0.0000,0.0000,8.6,30.4,11111222
BP,ioos:station:wmo:42880:1,2022-09-01T08:15:00Z,0.0000,0.0000,8.6,30.4,11111222
BP,ioos:station:wmo:42880:1,2022-09-01T08:25:00Z,0.0000,0.0000,8.6,30.4,11111222
BP,ioos:station:wmo:42880:1,2022-09-01T08:35:00Z,0.0000,0.0000,8.7,30.4,11111222
BP,ioos:station:wmo:42880:1,2022-09-01T08:45:00Z,0.0000,0.0000,8.7,30.4,11111222
BP,ioos:station:wmo:42880:1,2022-09-01T08:55:00Z,0.0000,0.0000,8.8,30.4,11111222
BP,ioos:station:wmo:42880:1,2022-09-01T09:05:00Z,0.0000,0.0000,8.6,30.4,11111222
BP,ioos:station:wmo:42880:1,2022-09-01T09:15:00Z,0.0000,0.0000,8.7,30.4,11111222
BP,ioos:station:wmo:42880:1,2022-09-01T09:25:00Z,0.0000,0.0000,8.7,30.4,11111222
BP,ioos:station:wmo:42880:1,2022-09-01T09:35:00Z,0.0000,0.0000,8.8,30.4,11111222
BP,ioos:station:wmo:42880:1,2022-09-01T09:45:00Z,0.0000,0.0000,8.8,30.4,11111222
BP,ioos:station:wmo:42880:1,2022-09-01T09:55:00Z,0.0000,0.0000,8.8,30.4,11111222
BP,ioos:station:wmo:42880:1,2022-09-01T10:05:00Z,0.0000,0.0000,8.8,30.4,11111222
BP,ioos:station:wmo:42880:1,2022-09-01T10:15:00Z,0.0000,0.0000,8.8,30.4,11111222
BP,ioos:station:wmo:42880:1,2022-09-01T10:25:00Z,0.0000,0.0000,8.8,30.4,11111222
BP,ioos:station:wmo:42880:1,2022-09-01T10:35:00Z,0.0000,0.0000,8.8,30.4,11111222
BP,ioos:station:wmo:42880:1,2022-09-01T10:45:00Z,0.0000,0.0000,8.8,30.4,11111222
BP,ioos:station:wmo:42880:1,2022-09-01T10:55:00Z,0.0000,0.0000,8.7,30.4,11111222
BP,ioos:station:wmo:42880:1,2022-09-01T11:05:00Z,0.0000,0.0000,8.7,30.4,11111222
BP,ioos:station:wmo:42880:1,2022-09-01T11:15:00Z,0.0000,0.0000,8.7,30.4,11111222
BP,ioos:station:wmo:42880:1,2022-09-01T11:25:00Z,0.0000,0.0000,8.7,30.4,11111222
BP,ioos:station:wmo:42880:1,2022-09-01T11:35:00Z,0.0000,0.0000,8.6,30.4,11111222
BP,ioos:station:wmo:42880:1,2022-09-01T11:45:00Z,0.0000,0.0000,8.6,30.4,11111222
BP,ioos:station:wmo:42880:1,2022-09-01T11:55:00Z,0.0000,0.0000,8.6,30.4,11111222
BP,ioos:station:wmo:42880:1,2022-09-01T12:05:00Z,0.0000,0.0000,8.6,30.4,11111222
BP,ioos:station:wmo:42880:1,2022-09-01T12:15:00Z,0.0000,0.0000,8.6,30.4,11111222
BP,ioos:station:wmo:42880:1,2022-09-01T12:41:00Z,0.0000,0.0000,8.6,30.4,11111222
BP,ioos:station:wmo:42880:1,2022-09-01T12:51:00Z,0.0000,0.0000,8.5,30.4,11111222
BP,ioos:station:wmo:42880:1,2022-09-01T13:01:00Z,0.0000,0.0000,8.5,30.4,11111222
BP,ioos:station:wmo:42880:1,2022-09-01T13:11:00Z,0.0000,0.0000,8.6,30.4,11111222
BP,ioos:station:wmo:42880:1,2022-09-01T13:21:00Z,0.0000,0.0000,8.8,30.4,11111222
BP,ioos:station:wmo:42880:1,2022-09-01T13:31:00Z,0.0000,0.0000,8.6,30.4,11111222
BP,ioos:station:wmo:42880:1,2022-09-01T13:41:00Z,0.0000,0.0000,8.5,30.4,11111222
BP,ioos:station:wmo:42880:1,2022-09-01T13:51:00Z,0.0000,0.0000,8.6,30.4,11111222
BP,ioos:station:wmo:42880:1,2022-09-01T14:01:00Z,0.0000,0.0000,8.5,30.4,11111222
BP,ioos:station:wmo:42880:1,2022-09-01T14:11:00Z,0.0000,0.0000,8.5,30.4,11111222
BP,ioos:station:wmo:42880:1,2022-09-01T14:21:00Z,0.0000,0.0000,8.5,30.4,11111222
BP,ioos:station:wmo:42880:1,2022-09-01T15:19:00Z,0.0000,0.0000,8.5,30.4,11111222
BP,ioos:station:wmo:42880:1,2022-09-01T15:29:00Z,0.0000,0.0000,8.5,30.4,11111222
BP,ioos:station:wmo:42880:1,2022-09-01T15:39:00Z,0.0000,0.0000,8.5,30.4,11111222
BP,ioos:station:wmo:42880:1,2022-09-01T15:49:00Z,0.0000,0.0000,8.5,30.4,11111222
BP,ioos:station:wmo:42880:1,2022-09-01T16:00:00Z,0.0000,0.0000,8.5,30.4,11111222
BP,ioos:station:wmo:42880:1,2022-09-01T16:10:00Z,0.0000,0.0000,8.5,30.4,11111222
BP,ioos:station:wmo:42880:1,2022-09-01T16:20:00Z,0.0000,0.0000,8.5,30.4,11111222
BP,ioos:station:wmo:42880:1,2022-09-01T16:30:00Z,0.0000,0.0000,8.4,30.5,11111222
BP,ioos:station:wmo:42880:1,2022-09-01T16:40:00Z,0.0000,0.0000,8.3,30.5,11111222
BP,ioos:station:wmo:42880:1,2022-09-01T16:50:00Z,0.0000,0.0000,8.3,30.5,11111222
BP,ioos:station:wmo:42880:1,2022-09-01T17:00:00Z,0.0000,0.0000,8.2,30.5,11111222
BP,ioos:station:wmo:42880:1,2022-09-01T17:10:00Z,0.0000,0.0000,8.1,30.5,11111222
BP,ioos:station:wmo:42880:1,2022-09-01T17:20:00Z,0.0000,0.0000,8.0,30.5,11111222
BP,ioos:station:wmo:42880:1,2022-09-01T17:30:00Z,0.0000,0.0000,8.0,30.4,11111222
BP,ioos:station:wmo:42880:1,2022-09-01T17:40:00Z,0.0000,0.0000,8.0,30.4,11111222
BP,ioos:station:wmo:42880:1,2022-09-01T17:50:00Z,0.0000,0.0000,8.0,30.4,11111222
BP,ioos:station:wmo:42880:1,2022-09-01T18:00:00Z,0.0000,0.0000,8.1,30.5,11111222
BP,ioos:station:wmo:42880:1,2022-09-01T18:10:00Z,0.0000,0.0000,8.1,30.5,11111222
BP,ioos:station:wmo:42880:1,2022-09-01T18:20:00Z,0.0000,0.0000,8.1,30.4,11111222
BP,ioos:station:wmo:42880:1,2022-09-01T18:30:00Z,0.0000,0.0000,8.1,30.4,11111222
BP,ioos:station:wmo:42880:1,2022-09-01T18:40:00Z,0.0000,0.0000,8.2,30.4,11111222
BP,ioos:station:wmo:42880:1,2022-09-01T18:50:00Z,0.0000,0.0000,8.2,30.4,11111222
BP,ioos:station:wmo:42880:1,2022-09-01T19:00:00Z,0.0000,0.0000,8.2,30.4,11111222
BP,ioos:station:wmo:42880:1,2022-09-01T19:10:00Z,0.0000,0.0000,8.2,30.4,11111222
BP,ioos:station:wmo:42880:1,2022-09-01T19:20:00Z,0.0000,0.0000,8.2,30.5,11111222
BP,ioos:station:wmo:42880:1,2022-09-01T19:30:00Z,0.0000,0.0000,8.2,30.5,11111222
BP,ioos:station:wmo:42880:1,2022-09-01T19:40:00Z,0.0000,0.0000,8.2,30.5,11111222
BP,ioos:station:wmo:42880:1,2022-09-01T19:50:00Z,0.0000,0.0000,8.2,30.5,11111222
BP,ioos:station:wmo:42880:1,2022-09-01T20:00:00Z,0.0000,0.0000,8.2,30.5,11111222
BP,ioos:station:wmo:42880:1,2022-09-01T20:10:00Z,0.0000,0.0000,8.3,30.6,11111222
BP,ioos:station:wmo:42880:1,2022-09-01T20:20:00Z,0.0000,0.0000,8.3,30.6,11111222
BP,ioos:station:wmo:42880:1,2022-09-01T20:30:00Z,0.0000,0.0000,8.3,30.6,11111222
BP,ioos:station:wmo:42880:1,2022-09-01T20:40:00Z,0.0000,0.0000,8.1,30.6,11111222
BP,ioos:station:wmo:42880:1,2022-09-01T20:50:00Z,0.0000,0.0000,8.3,30.7,11111222
BP,ioos:station:wmo:42880:1,2022-09-01T21:00:00Z,0.0000,0.0000,8.4,30.7,11111222
BP,ioos:station:wmo:42880:1,2022-09-01T21:10:00Z,0.0000,0.0000,8.4,30.6,11111222
BP,ioos:station:wmo:42880:1,2022-09-01T21:20:00Z,0.0000,0.0000,8.4,30.6,11111222
BP,ioos:station:wmo:42880:1,2022-09-01T21:30:00Z,0.0000,0.0000,8.4,30.7,11111222
BP,ioos:station:wmo:42880:1,2022-09-01T21:40:00Z,0.0000,0.0000,8.4,30.7,11111222
BP,ioos:station:wmo:42880:1,2022-09-01T21:50:00Z,0.0000,0.0000,8.4,30.7,11111222
BP,ioos:station:wmo:42880:1,2022-09-01T22:00:00Z,0.0000,0.0000,8.3,30.8,11111222
BP,ioos:station:wmo:42880:1,2022-09-01T22:10:00Z,0.0000,0.0000,8.3,30.8,11111222
BP,ioos:station:wmo:42880:1,2022-09-01T22:20:00Z,0.0000,0.0000,8.3,30.8,11111222
BP,ioos:station:wmo:42880:1,2022-09-01T22:30:00Z,0.0000,0.0000,8.3,30.8,11111222
BP,ioos:station:wmo:42880:1,2022-09-01T22:40:00Z,0.0000,0.0000,8.3,30.8,11111222
BP,ioos:station:wmo:42880:1,2022-09-01T22:50:00Z,0.0000,0.0000,8.2,30.8,11111222
BP,ioos:station:wmo:42880:1,2022-09-01T23:00:00Z,0.0000,0.0000,8.2,30.8,11111222
BP,ioos:station:wmo:42880:1,2022-09-01T23:11:00Z,0.0000,0.0000,8.1,30.7,11111222
BP,ioos:station:wmo:42880:1,2022-09-01T23:22:00Z,0.0000,0.0000,8.1,30.7,11111222
BP,ioos:station:wmo:42880:1,2022-09-01T23:32:00Z,0.0000,0.0000,8.2,30.7,11111222
BP,ioos:station:wmo:42880:1,2022-09-01T23:42:00Z,0.0000,0.0000,8.4,30.7,11111222
BP,ioos:station:wmo:42880:1,2022-09-01T23:52:00Z,0.0000,0.0000,8.4,30.7,11111222
BP,ioos:station:wmo:42880:1,2022-09-02T00:02:00Z,0.0000,0.0000,8.5,30.7,11111222
BP,ioos:station:wmo:42880:1,2022-09-02T00:12:00Z,0.0000,0.0000,8.5,30.7,11111222
BP,ioos:station:wmo:42880:1,2022-09-02T00:22:00Z,0.0000,0.0000,8.4,30.7,11111222
BP,ioos:station:wmo:42880:1,2022-09-02T00:32:00Z,0.0000,0.0000,8.4,30.7,11111222
BP,ioos:station:wmo:42880:1,2022-09-02T00:42:00Z,0.0000,0.0000,8.4,30.7,11111222
BP,ioos:station:wmo:42880:1,2022-09-02T00:52:00Z,0.0000,0.0000,8.4,30.7,11111222
BP,ioos:station:wmo:42880:1,2022-09-02T01:02:00Z,0.0000,0.0000,8.5,30.7,11111222
BP,ioos:station:wmo:42880:1,2022-09-02T01:12:00Z,0.0000,0.0000,8.4,30.7,11111222
BP,ioos:station:wmo:42880:1,2022-09-02T01:22:00Z,0.0000,0.0000,8.4,30.7,11111222
BP,ioos:station:wmo:42880:1,2022-09-02T01:32:00Z,0.0000,0.0000,8.4,30.7,11111222
BP,ioos:station:wmo:42880:1,2022-09-02T01:42:00Z,0.0000,0.0000,8.4,30.7,11111222
BP,ioos:station:wmo:42880:1,2022-09-02T01:52:00Z,0.0000,0.0000,8.4,30.7,11111222
BP,ioos:station:wmo:42880:1,2022-09-02T02:02:00Z,0.0000,0.0000,8.4,30.7,11111222
BP,ioos:station:wmo:42880:1,2022-09-02T02:12:00Z,0.0000,0.0000,8.4,30.7,11111222
BP,ioos:station:wmo:42880:1,2022-09-02T02:22:00Z,0.0000,0.0000,8.4,30.7,11111222
BP,ioos:station:wmo:42880:1,2022-09-02T02:32:00Z,0.0000,0.0000,8.4,30.7,11111222
BP,ioos:station:wmo:42880:1,2022-09-02T02:42:00Z,0.0000,0.0000,8.4,30.7,11111222
BP,ioos:station:wmo:42880:1,2022-09-02T02:52:00Z,0.0000,0.0000,8.4,30.7,11111222
BP,ioos:station:wmo:42880:1,2022-09-02T03:02:00Z,0.0000,0.0000,8.4,30.7,11111222
BP,ioos:station:wmo:42880:1,2022-09-02T03:12:00Z,0.0000,0.0000,8.4,30.7,11111222
BP,ioos:station:wmo:42880:1,2022-09-02T03:22:00Z,0.0000,0.0000,8.4,30.6,11111222
BP,ioos:station:wmo:42880:1,2022-09-02T03:32:00Z,0.0000,0.0000,8.4,30.6,11111222
BP,ioos:station:wmo:42880:1,2022-09-02T03:42:00Z,0.0000,0.0000,8.4,30.6,11111222
BP,ioos:station:wmo:42880:1,2022-09-02T03:52:00Z,0.0000,0.0000,8.4,30.6,11111222
BP,ioos:station:wmo:42880:1,2022-09-02T04:02:00Z,0.0000,0.0000,8.5,30.6,11111222
BP,ioos:station:wmo:42880:1,2022-09-02T04:12:00Z,0.0000,0.0000,8.5,30.6,11111222
BP,ioos:station:wmo:42880:1,2022-09-02T04:22:00Z,0.0000,0.0000,8.5,30.6,11111222
BP,ioos:station:wmo:42880:1,2022-09-02T04:32:00Z,0.0000,0.0000,8.5,30.6,11111222
BP,ioos:station:wmo:42880:1,2022-09-02T04:42:00Z,0.0000,0.0000,8.5,30.6,11111222
BP,ioos:station:wmo:42880:1,2022-09-02T04:52:00Z,0.0000,0.0000,8.5,30.6,11111222
BP,ioos:station:wmo:42880:1,2022-09-02T05:02:00Z,0.0000,0.0000,8.5,30.6,11111222
BP,ioos:station:wmo:42880:1,2022-09-02T05:12:00Z,0.0000,0.0000,8.5,30.6,11111222
BP,ioos:station:wmo:42880:1,2022-09-02T05:22:00Z,0.0000,0.0000,8.5,30.6,11111222
BP,ioos:station:wmo:42880:1,2022-09-02T10:08:00Z,0.0000,0.0000,9.2,30.5,11111222
BP,ioos:station:wmo:42880:1,2022-09-02T10:18:00Z,0.0000,0.0000,9.2,30.5,11111222
BP,ioos:station:wmo:42880:1,2022-09-02T10:28:00Z,0.0000,0.0000,9.2,30.5,11111222
BP,ioos:station:wmo:42880:1,2022-09-02T10:38:00Z,0.0000,0.0000,9.2,30.5,11111222
BP,ioos:station:wmo:42880:1,2022-09-02T10:48:00Z,0.0000,0.0000,9.2,30.5,11111222
BP,ioos:station:wmo:42880:1,2022-09-02T10:58:00Z,0.0000,0.0000,9.3,30.5,11111222
BP,ioos:station:wmo:42880:1,2022-09-02T11:08:00Z,0.0000,0.0000,9.3,30.5,11111222
BP,ioos:station:wmo:42880:1,2022-09-02T11:18:00Z,0.0000,0.0000,9.3,30.5,11111222
BP,ioos:station:wmo:42880:1,2022-09-02T11:28:00Z,0.0000,0.0000,9.2,30.5,11111222
BP,ioos:station:wmo:42880:1,2022-09-02T11:38:00Z,0.0000,0.0000,9.2,30.5,11111222
BP,ioos:station:wmo:42880:1,2022-09-02T11:48:00Z,0.0000,0.0000,9.3,30.5,11111222
BP,ioos:station:wmo:42880:1,2022-09-02T11:58:00Z,0.0000,0.0000,9.2,30.5,11111222
BP,ioos:station:wmo:42880:1,2022-09-02T12:08:00Z,0.0000,0.0000,9.2,30.5,11111222
BP,ioos:station:wmo:42880:1,2022-09-02T12:18:00Z,0.0000,0.0000,9.2,30.5,11111222
BP,ioos:station:wmo:42880:1,2022-09-02T12:28:00Z,0.0000,0.0000,9.2,30.5,11111222
BP,ioos:station:wmo:42880:1,2022-09-02T12:38:00Z,0.0000,0.0000,9.2,30.5,11111222
BP,ioos:station:wmo:42880:1,2022-09-02T12:48:00Z,0.0000,0.0000,9.3,30.5,11111222
BP,ioos:station:wmo:42880:1,2022-09-02T12:58:00Z,0.0000,0.0000,9.3,30.4,11111222
BP,ioos:station:wmo:42880:1,2022-09-02T13:08:00Z,0.0000,0.0000,9.3,30.4,11111222
BP,ioos:station:wmo:42880:1,2022-09-02T13:18:00Z,0.0000,0.0000,9.0,30.4,11111222
BP,ioos:station:wmo:42880:1,2022-09-02T13:28:00Z,0.0000,0.0000,8.7,30.4,11111222
BP,ioos:station:wmo:42880:1,2022-09-02T13:38:00Z,0.0000,0.0000,8.9,30.4,11111222
BP,ioos:station:wmo:42880:1,2022-09-02T13:48:00Z,0.0000,0.0000,9.0,30.4,11111222
BP,ioos:station:wmo:42880:1,2022-09-02T13:58:00Z,0.0000,0.0000,8.7,30.4,11111222
BP,ioos:station:wmo:42880:1,2022-09-02T14:08:00Z,0.0000,0.0000,8.8,30.4,11111222
BP,ioos:station:wmo:42880:1,2022-09-02T14:18:00Z,0.0000,0.0000,8.6,30.4,11111222
BP,ioos:station:wmo:42880:1,2022-09-02T14:28:00Z,0.0000,0.0000,9.0,30.4,11111222
BP,ioos:station:wmo:42880:1,2022-09-02T14:38:00Z,0.0000,0.0000,8.6,30.3,11111222
BP,ioos:station:wmo:42880:1,2022-09-02T14:48:00Z,0.0000,0.0000,8.7,30.3,11111222
BP,ioos:station:wmo:42880:1,2022-09-02T14:58:00Z,0.0000,0.0000,8.4,30.3,11111222
BP,ioos:station:wmo:42880:1,2022-09-02T15:08:00Z,0.0000,0.0000,8.4,30.3,11111222
BP,ioos:station:wmo:42880:1,2022-09-02T15:18:00Z,0.0000,0.0000,8.6,30.3,11111222
BP,ioos:station:wmo:42880:1,2022-09-02T15:28:00Z,0.0000,0.0000,8.7,30.3,11111222
BP,ioos:station:wmo:42880:1,2022-09-02T22:43:00Z,27.2189,-90.0469,8.4,30.3,11111222
BP,ioos:station:wmo:42880:1,2022-09-02T22:53:00Z,27.2189,-90.0469,7.9,30.3,11111222
BP,ioos:station:wmo:42880:1,2022-09-02T23:03:00Z,27.2189,-90.0469,8.4,30.2,11111222
BP,ioos:station:wmo:42880:1,2022-09-02T23:13:00Z,27.2189,-90.0469,8.4,30.2,11111222
BP,ioos:station:wmo:42880:1,2022-09-02T23:23:00Z,27.2189,-90.0469,7.9,30.2,11111222
BP,ioos:station:wmo:42880:1,2022-09-02T23:33:00Z,27.2189,-90.0469,8.2,30.2,11111222
BP,ioos:station:wmo:42880:1,2022-09-02T23:43:00Z,27.2189,-90.0469,8.2,30.3,11111222
BP,ioos:station:wmo:42880:1,2022-09-02T23:53:00Z,27.2189,-90.0469,8.2,30.4,11111222
BP,ioos:station:wmo:42880:1,2022-09-03T00:03:00Z,27.2189,-90.0469,8.5,30.3,11111222
BP,ioos:station:wmo:42880:1,2022-09-03T00:13:00Z,27.2189,-90.0469,8.5,30.3,11111222
BP,ioos:station:wmo:42880:1,2022-09-03T00:23:00Z,27.2189,-90.0469,8.6,30.3,11111222
BP,ioos:station:wmo:42880:1,2022-09-03T00:33:00Z,27.2189,-90.0469,8.7,30.3,11111222
BP,ioos:station:wmo:42880:1,2022-09-03T00:43:00Z,27.2189,-90.0469,8.6,30.3,11111222
BP,ioos:station:wmo:42880:1,2022-09-03T00:53:00Z,27.2189,-90.0469,8.5,30.2,11111222
BP,ioos:station:wmo:42880:1,2022-09-03T01:03:00Z,27.2189,-90.0469,7.6,30.2,11111222
BP,ioos:station:wmo:42880:1,2022-09-03T01:13:00Z,27.2189,-90.0469,7.8,30.4,11111222
BP,ioos:station:wmo:42880:1,2022-09-03T01:23:00Z,27.2189,-90.0469,8.7,30.4,11111222
BP,ioos:station:wmo:42880:1,2022-09-03T01:33:00Z,27.2189,-90.0469,8.8,30.4,11111222
BP,ioos:station:wmo:42880:1,2022-09-03T01:43:00Z,27.2189,-90.0469,8.8,30.4,11111222
BP,ioos:station:wmo:42880:1,2022-09-03T01:53:00Z,27.2189,-90.0469,8.8,30.4,11111222
BP,ioos:station:wmo:42880:1,2022-09-03T02:03:00Z,27.2189,-90.0469,8.8,30.4,11111222
BP,ioos:station:wmo:42880:1,2022-09-03T02:13:00Z,27.2189,-90.0469,8.7,30.4,11111222
BP,ioos:station:wmo:42880:1,2022-09-03T02:23:00Z,27.2189,-90.0469,8.9,30.4,11111222
BP,ioos:station:wmo:42880:1,2022-09-03T02:34:00Z,27.2189,-90.0469,8.8,30.4,11111222
BP,ioos:station:wmo:42880:1,2022-09-03T02:44:00Z,27.2189,-90.0469,8.7,30.4,11111222
BP,ioos:station:wmo:42880:1,2022-09-03T02:54:00Z,27.2189,-90.0469,8.8,30.3,11111222
BP,ioos:station:wmo:42880:1,2022-09-03T03:04:00Z,27.2189,-90.0469,8.7,30.2,11111222
BP,ioos:station:wmo:42880:1,2022-09-03T03:14:00Z,27.2189,-90.0469,8.8,30.1,11111222
BP,ioos:station:wmo:42880:1,2022-09-03T03:24:00Z,27.2189,-90.0469,8.7,30.1,11111222
BP,ioos:station:wmo:42880:1,2022-09-03T03:34:00Z,27.2189,-90.0469,8.7,30.0,11111222
BP,ioos:station:wmo:42880:1,2022-09-03T03:44:00Z,27.2189,-90.0469,8.7,30.0,11111222
BP,ioos:station:wmo:42880:1,2022-09-03T03:54:00Z,27.2189,-90.0469,8.7,30.0,11111222
BP,ioos:station:wmo:42880:1,2022-09-03T04:04:00Z,27.2189,-90.0469,7.8,30.1,11111222
BP,ioos:station:wmo:42880:1,2022-09-03T04:14:00Z,27.2189,-90.0469,7.9,30.1,11111222
BP,ioos:station:wmo:42880:1,2022-09-03T04:24:00Z,27.2189,-90.0469,7.9,30.1,11111222
BP,ioos:station:wmo:42880:1,2022-09-03T04:34:00Z,27.2189,-90.0469,7.9,30.2,11111222
BP,ioos:station:wmo:42880:1,2022-09-03T04:44:00Z,27.2189,-90.0469,8.0,30.1,11111222
BP,ioos:station:wmo:42880:1,2022-09-03T04:54:00Z,27.2189,-90.0469,8.0,30.1,11111222
BP,ioos:station:wmo:42880:1,2022-09-03T05:04:00Z,27.2189,-90.0469,8.0,30.1,11111222
BP,ioos:station:wmo:42880:1,2022-09-03T05:14:00Z,27.2189,-90.0469,7.9,30.1,11111222
BP,ioos:station:wmo:42880:1,2022-09-03T05:24:00Z,27.2189,-90.0469,8.0,30.1,11111222
BP,ioos:station:wmo:42880:1,2022-09-03T05:34:00Z,27.2189,-90.0469,8.0,30.1,11111222
BP,ioos:station:wmo:42880:1,2022-09-03T05:44:00Z,27.2189,-90.0469,8.1,30.1,11111222
BP,ioos:station:wmo:42880:1,2022-09-03T05:54:00Z,27.2189,-90.0469,8.1,30.1,11111222
BP,ioos:station:wmo:42880:1,2022-09-03T06:04:00Z,27.2189,-90.0469,8.1,30.1,11111222
BP,ioos:station:wmo:42880:1,2022-09-03T06:14:00Z,27.2189,-90.0469,8.1,30.1,11111222
BP,ioos:station:wmo:42880:1,2022-09-03T06:24:00Z,27.2189,-90.0469,8.1,30.1,11111222
BP,ioos:station:wmo:42880:1,2022-09-03T06:34:00Z,27.2189,-90.0469,8.0,30.1,11111222
BP,ioos:station:wmo:42880:1,2022-09-03T06:44:00Z,27.2189,-90.0469,8.1,30.1,11111222
BP,ioos:station:wmo:42880:1,2022-09-03T06:54:00Z,27.2189,-90.0469,8.1,30.1,11111222
BP,ioos:station:wmo:42880:1,2022-09-03T07:04:00Z,27.2189,-90.0469,8.3,30.1,11111222
BP,ioos:station:wmo:42880:1,2022-09-03T07:14:00Z,27.2189,-90.0469,8.8,30.1,11111222
BP,ioos:station:wmo:42880:1,2022-09-03T07:24:00Z,27.2189,-90.0469,8.9,30.0,11111222
BP,ioos:station:wmo:42880:1,2022-09-03T07:34:00Z,27.2189,-90.0469,8.8,30.0,11111222
BP,ioos:station:wmo:42880:1,2022-09-03T07:44:00Z,27.2189,-90.0469,8.8,30.0,11111222
BP,ioos:station:wmo:42880:1,2022-09-03T07:54:00Z,27.2189,-90.0469,8.8,30.0,11111222
BP,ioos:station:wmo:42880:1,2022-09-03T08:04:00Z,27.2189,-90.0469,8.9,30.0,11111222
BP,ioos:station:wmo:42880:1,2022-09-03T08:14:00Z,27.2189,-90.0469,8.8,30.0,11111222
BP,ioos:station:wmo:42880:1,2022-09-03T08:24:00Z,27.2189,-90.0469,8.7,30.0,11111222
BP,ioos:station:wmo:42880:1,2022-09-03T08:34:00Z,27.2189,-90.0469,9.0,30.0,11111222
BP,ioos:station:wmo:42880:1,2022-09-03T08:44:00Z,27.2189,-90.0469,8.9,30.0,11111222
BP,ioos:station:wmo:42880:1,2022-09-03T08:54:00Z,27.2189,-90.0469,8.9,30.0,11111222
BP,ioos:station:wmo:42880:1,2022-09-03T09:04:00Z,27.2189,-90.0469,8.8,30.0,11111222
BP,ioos:station:wmo:42880:1,2022-09-03T09:14:00Z,27.2189,-90.0469,8.8,30.0,11111222
BP,ioos:station:wmo:42880:1,2022-09-03T09:24:00Z,27.2189,-90.0469,8.8,30.0,11111222
BP,ioos:station:wmo:42880:1,2022-09-03T09:34:00Z,27.2189,-90.0469,8.8,30.0,11111222
BP,ioos:station:wmo:42880:1,2022-09-03T09:44:00Z,27.2189,-90.0469,8.8,30.1,11111222
BP,ioos:station:wmo:42880:1,2022-09-03T09:55:00Z,27.2189,-90.0469,8.8,30.0,11111222
BP,ioos:station:wmo:42880:1,2022-09-03T10:05:00Z,27.2189,-90.0469,8.8,30.1,11111222
BP,ioos:station:wmo:42880:1,2022-09-03T10:31:00Z,27.2189,-90.0469,8.8,30.1,11111222
BP,ioos:station:wmo:42880:1,2022-09-03T10:41:00Z,27.2189,-90.0469,8.8,30.1,11111222
BP,ioos:station:wmo:42880:1,2022-09-03T10:51:00Z,27.2189,-90.0469,8.8,30.0,11111222
BP,ioos:station:wmo:42880:1,2022-09-03T11:01:00Z,27.2189,-90.0469,8.8,30.0,11111222
BP,ioos:station:wmo:42880:1,2022-09-03T11:11:00Z,27.2189,-90.0469,8.8,30.0,11111222
BP,ioos:station:wmo:42880:1,2022-09-03T11:21:00Z,27.2189,-90.0469,8.7,30.0,11111222
BP,ioos:station:wmo:42880:1,2022-09-03T11:44:00Z,27.2189,-90.0469,8.8,30.0,11111222
BP,ioos:station:wmo:42880:1,2022-09-03T11:54:00Z,27.2189,-90.0469,8.7,30.0,11111222
BP,ioos:station:wmo:42880:1,2022-09-03T12:04:00Z,27.2189,-90.0469,8.2,30.0,11111222
BP,ioos:station:wmo:42880:1,2022-09-03T12:14:00Z,27.2189,-90.0469,7.8,30.0,11111222
BP,ioos:station:wmo:42880:1,2022-09-03T12:35:00Z,27.2189,-90.0469,7.6,30.0,11111222
BP,ioos:station:wmo:42880:1,2022-09-03T12:45:00Z,27.2189,-90.0469,7.6,30.0,11111222
BP,ioos:station:wmo:42880:1,2022-09-03T12:55:00Z,27.2189,-90.0469,7.6,30.0,11111222
BP,ioos:station:wmo:42880:1,2022-09-03T13:05:00Z,27.2189,-90.0469,7.8,30.0,11111222
BP,ioos:station:wmo:42880:1,2022-09-03T13:15:00Z,27.2189,-90.0469,8.2,30.0,11111222
BP,ioos:station:wmo:42880:1,2022-09-03T13:25:00Z,27.2189,-90.0469,8.5,30.0,11111222